Theta_e
307 307 309 309 309 309 309 309 309 310 310 311 310 307 306 306 306 300 297 300 296 291 293 294 295 293 293 292 288 291 291 293 291 285 286 287 286 288 283 287 288 282 282 281 283 278 275 293 291 283 287 290 292 292
304 306 306 308 308 308 308 308 309 309 309 310 310 307 306 305 306 303 295 301 300 292 292 294 295 297 297 297 293 291 290 291 294 287 288 287 284 284 281 275 290 283 287 280 283 280 288 290 290 292 293 291 292 293
304 304 304 305 307 307 308 308 308 309 309 310 309 307 306 305 306 303 297 298 296 292 292 292 290 297 300 299 300 290 293 298 295 294 289 286 282 283 276 281 287 292 290 281 285 287 288 290 292 293 294 293 295 295
303 303 303 303 305 306 307 308 308 309 309 309 308 307 306 306 305 304 297 299 296 293 286 288 298 296 302 300 298 298 296 296 297 294 288 286 286 290 287 288 285 287 287 284 284 286 289 291 292 292 294 295 296 297
303 303 303 303 303 304 306 307 308 308 309 309 308 307 306 305 304 304 300 299 299 293 286 287 292 296 298 298 297 297 295 292 292 290 287 284 286 287 287 287 287 289 284 278 279 285 288 289 291 294 294 294 295 295
303 303 303 304 303 303 304 306 308 308 309 309 308 307 306 305 304 298 292 298 300 298 289 284 292 294 297 298 297 295 294 296 295 292 290 287 289 289 281 284 289 289 290 287 285 292 292 293 295 296 294 294 295 296
303 304 305 305 305 303 303 306 308 308 309 309 308 307 305 305 299 294 293 297 300 298 289 286 286 293 299 299 298 297 297 296 294 292 290 286 288 293 287 278 287 290 289 289 292 293 290 293 291 294 294 295 297 297
303 304 304 305 305 304 304 305 307 308 309 308 307 306 304 304 299 295 299 301 301 295 293 285 286 289 298 294 294 298 295 295 294 292 292 291 292 292 287 290 292 290 290 290 291 294 293 293 293 293 294 294 294 294
303 304 305 305 305 304 304 306 306 308 308 306 305 303 298 295 292 294 302 303 301 295 287 286 284 284 298 297 297 297 298 290 296 288 290 291 289 286 289 291 291 291 287 288 293 294 291 291 292 293 292 293 292 293
303 303 305 305 305 305 305 305 306 307 305 303 299 295 290 294 301 303 296 291 291 291 290 286 291 287 292 293 294 294 295 291 287 289 294 290 288 294 294 293 289 289 290 292 287 287 289 290 291 291 291 292 293 293
303 304 305 306 305 306 306 305 306 305 302 297 293 291 298 302 297 292 288 286 286 283 287 288 289 286 294 288 290 293 290 289 287 289 289 286 285 291 292 290 289 289 288 288 288 290 292 292 291 291 291 292 292 292
303 303 305 305 306 306 306 306 304 299 296 297 296 299 298 293 290 287 285 287 285 282 288 288 289 290 291 294 289 290 287 288 281 292 288 279 288 289 290 288 287 287 287 288 289 289 292 293 293 292 291 291 291 292
303 303 304 305 305 305 306 306 303 302 301 298 294 291 289 288 282 282 280 283 285 288 291 292 289 292 291 291 289 288 286 282 293 286 284 287 287 288 288 288 287 287 288 288 288 291 292 293 292 292 291 292 292 292
303 303 303 303 304 305 305 306 303 301 297 290 288 282 284 283 284 285 286 287 291 295 294 294 292 290 291 287 288 286 288 289 284 284 281 284 286 287 288 288 287 286 287 287 288 290 291 291 290 292 292 292 291 291
302 302 303 303 304 304 305 304 303 300 295 288 288 282 283 286 290 292 292 292 294 296 295 293 292 290 287 287 287 286 284 281 281 282 281 284 286 287 286 287 286 286 286 286 287 289 289 290 290 289 291 291 291 291
302 302 301 303 304 304 305 302 298 297 293 291 289 286 287 288 289 290 292 291 297 296 297 295 290 287 287 285 284 283 281 277 278 280 285 285 286 286 285 286 287 288 287 286 287 288 289 289 289 289 290 291 290 291
302 299 304 303 304 304 301 294 294 290 288 288 286 290 288 289 291 292 294 294 298 295 289 289 285 286 291 282 281 282 279 280 284 284 285 286 285 285 286 287 288 288 287 287 287 288 288 289 289 289 288 289 290 290
299 302 304 304 301 298 295 295 291 288 286 288 285 287 290 291 291 294 297 297 295 293 290 287 292 287 285 283 280 284 285 286 287 286 286 286 286 287 288 286 288 287 287 287 287 287 286 286 286 287 288 289 289 289
301 302 304 301 298 293 289 290 292 286 286 285 287 290 293 293 293 294 296 296 296 295 292 289 286 285 285 288 287 286 286 287 285 286 286 287 287 288 289 289 289 287 287 287 287 285 284 285 285 286 287 288 287 288
302 303 301 301 299 291 288 289 294 288 286 285 290 288 290 291 293 294 296 295 293 291 288 287 287 288 290 291 291 289 288 288 287 285 285 286 288 288 288 287 286 286 285 285 284 286 284 285 285 286 286 287 287 287
299 300 301 299 297 294 292 288 288 290 288 287 289 289 288 290 290 292 293 295 290 288 287 289 289 289 289 289 289 289 290 290 287 287 286 286 287 287 285 285 285 284 283 283 282 283 284 283 284 285 286 286 287 287
297 299 296 297 293 294 292 292 288 292 289 292 291 291 290 288 290 292 295 290 290 291 291 289 289 289 288 288 287 289 290 288 287 286 287 288 284 283 283 284 284 283 282 282 282 282 282 283 284 284 285 285 286 286
298 297 294 294 289 288 289 295 290 291 288 290 291 289 289 291 292 296 290 290 291 293 291 291 290 289 289 288 287 287 288 287 284 284 285 285 285 284 284 284 284 283 281 282 282 281 282 284 284 284 284 283 283 284
299 292 288 287 287 285 291 289 291 290 289 288 288 286 290 291 294 291 287 287 290 291 290 290 290 287 286 286 285 286 286 285 284 284 285 286 283 282 282 283 283 283 282 282 282 281 282 282 284 283 283 282 282 281
287 287 287 284 289 288 287 287 288 288 286 289 288 288 290 292 287 287 286 286 288 288 289 288 288 289 286 284 284 284 285 285 285 283 283 285 283 281 281 281 281 282 282 282 281 281 280 282 282 282 282 281 280 280
279 286 285 285 286 286 286 285 285 286 288 288 289 292 293 288 285 285 287 288 288 288 288 289 288 286 285 286 285 284 285 285 284 282 281 284 284 283 280 279 279 280 282 282 282 281 281 281 281 281 280 280 280 280
283 284 287 292 290 290 289 290 290 287 288 288 289 288 288 283 284 288 291 291 289 290 292 292 291 290 288 286 286 285 285 286 285 284 283 283 283 282 281 280 280 280 283 283 282 282 281 281 280 280 279 279 279 279
289 289 285 287 290 290 288 289 289 288 289 292 291 288 286 285 284 288 292 293 292 290 290 291 291 290 289 288 288 287 286 286 286 286 284 283 282 282 282 282 283 284 283 283 282 282 280 280 279 279 279 277 277 278
288 291 290 287 289 289 287 289 290 291 294 293 288 285 286 286 287 287 289 290 293 290 288 287 286 287 286 285 285 285 287 286 284 282 280 277 278 279 280 282 282 282 282 281 281 280 280 279 278 278 278 277 277 277
289 292 287 289 287 286 288 290 288 290 291 291 290 288 287 286 287 288 287 288 290 288 288 288 287 286 284 283 282 282 281 282 283 281 279 277 277 279 279 280 280 280 280 279 278 277 278 277 277 277 276 276 275 274
292 291 288 287 286 288 289 290 291 290 290 289 289 286 285 286 287 286 285 286 289 288 285 284 284 285 283 282 282 279 277 279 280 280 279 278 278 279 280 281 282 281 279 278 277 276 275 275 275 274 274 274 274 273
290 288 287 284 284 288 290 288 287 286 286 286 285 287 286 283 280 282 284 284 283 281 281 281 279 278 279 279 279 279 279 279 279 279 279 278 278 278 278 280 281 280 279 277 276 275 275 274 273 273 272 272 272 272
286 288 287 286 284 285 287 285 284 283 283 283 283 283 281 280 277 283 286 286 283 281 280 280 280 280 279 279 278 278 279 279 279 279 279 279 279 279 279 279 279 279 278 276 275 273 271 268 267 266 265 265 265 266
Wind_Speed
12 12 11 10 10 9 9 10 10 10 9 9 14 12 10 7 10 4 1 3 2 3 7 10 10 7 4 3 2 4 5 3 3 3 0 1 1 2 2 1 2 4 2 2 2 2 8 1 2 1 4 6 11 13
13 11 11 10 11 10 10 10 10 10 9 9 14 14 11 8 9 7 2 2 2 3 6 3 8 12 12 14 3 3 3 3 2 1 1 2 2 3 2 2 3 2 5 4 7 7 3 2 6 6 2 9 12 16
12 12 13 11 10 11 10 10 10 10 9 8 14 14 12 9 10 10 2 2 1 3 6 4 8 8 11 15 14 4 3 3 2 2 2 1 2 3 1 4 2 0 2 2 4 2 4 8 2 2 8 12 16 17
12 12 13 13 12 11 10 10 9 10 8 8 14 13 11 8 5 11 2 2 1 1 4 7 5 7 3 6 12 20 8 5 2 1 1 1 2 4 2 2 3 4 2 1 6 6 10 2 11 14 17 17 19 21
13 13 13 12 13 13 11 11 10 9 8 8 14 13 10 7 8 6 2 3 2 2 4 7 13 8 10 8 10 13 12 7 2 1 1 3 2 1 1 1 3 3 3 3 5 1 4 12 14 18 17 19 20 22
13 13 14 13 12 13 13 12 11 9 8 10 15 13 11 8 8 3 2 2 4 3 2 5 5 5 5 4 8 11 9 6 3 2 2 3 4 2 1 2 2 2 3 3 4 6 10 15 13 13 17 19 19 19
14 15 15 14 13 12 13 12 11 10 9 11 14 12 10 12 3 2 1 1 6 3 2 5 5 5 2 4 2 2 3 3 3 1 2 2 3 2 1 3 3 2 2 4 6 6 6 8 13 17 16 19 19 18
14 15 14 14 14 13 12 11 11 10 7 12 12 11 6 11 3 2 3 6 5 2 2 3 4 4 3 3 2 2 2 2 1 2 1 3 1 1 3 3 4 1 4 4 6 7 8 12 13 15 14 16 18 19
14 13 14 15 12 11 10 10 8 8 8 14 15 15 4 1 1 2 5 10 3 2 2 3 2 2 6 2 3 2 3 3 2 3 3 2 2 4 5 3 3 2 3 5 7 8 8 10 14 15 16 18 18 19
15 14 15 13 10 9 9 7 8 7 23 21 4 2 2 3 5 8 2 2 2 3 3 4 2 3 1 3 3 1 3 3 3 4 1 3 3 1 3 5 3 2 6 5 5 8 11 14 15 17 17 16 16 17
14 12 13 11 10 10 10 8 3 23 13 2 2 2 1 7 2 2 3 3 2 3 4 4 6 3 3 3 1 4 3 3 2 2 2 1 3 3 4 5 4 4 5 5 4 4 8 11 13 15 16 17 16 18
12 11 11 9 9 8 8 7 24 7 4 4 4 3 2 2 2 4 3 4 5 4 4 3 4 4 2 4 3 3 2 2 2 3 1 3 1 3 6 5 4 4 5 7 6 6 10 12 12 13 13 15 16 16
13 11 10 10 9 9 8 13 20 20 13 3 1 3 3 3 5 6 5 4 4 4 3 3 3 3 3 4 4 0 0 1 4 1 3 1 1 4 4 3 2 4 5 6 6 8 11 12 13 13 13 14 15 14
12 11 11 10 10 9 9 13 24 13 4 3 4 5 5 5 5 5 3 2 3 1 3 4 3 5 4 3 2 2 2 3 3 3 3 3 4 3 2 2 2 5 5 5 6 8 10 11 11 12 11 12 14 14
11 11 11 11 11 10 8 24 20 3 3 4 4 5 8 4 3 2 3 3 4 1 1 4 3 3 1 2 1 2 2 3 3 2 3 3 5 3 1 1 3 5 5 5 5 6 8 10 10 11 12 12 13 14
11 9 7 11 13 13 12 19 3 2 1 2 5 4 4 3 4 6 6 6 3 2 3 1 3 1 1 1 2 4 3 4 4 3 3 5 5 3 1 1 3 4 5 5 5 6 7 9 10 10 10 11 12 13
9 3 8 12 12 18 22 6 2 2 4 4 4 3 4 3 3 2 3 3 2 1 2 4 5 4 1 1 2 3 5 4 3 3 3 5 6 4 3 3 3 3 4 5 6 6 7 7 7 9 12 13 11 12
4 3 8 12 18 11 3 2 3 5 5 4 4 3 3 3 3 2 2 2 1 3 1 2 3 3 3 4 3 4 2 2 3 4 4 4 4 4 4 3 3 3 4 5 5 5 5 6 7 8 8 10 10 12
4 5 18 26 11 6 3 2 2 3 6 3 4 3 3 2 3 3 4 4 3 3 3 2 1 3 4 3 3 3 3 3 4 3 3 4 5 4 2 3 3 4 4 4 5 4 4 5 4 4 5 6 8 9
10 16 26 18 6 3 4 2 2 3 3 4 3 2 3 3 2 3 4 2 3 2 3 2 3 3 4 3 4 4 5 5 5 4 2 2 2 1 1 2 3 4 3 4 4 6 5 6 5 6 6 6 8 9
7 12 14 4 2 3 2 3 3 3 3 3 2 4 3 1 3 3 2 4 3 3 3 3 2 2 1 2 3 4 7 7 5 5 5 4 2 4 3 3 5 4 4 3 4 4 6 4 4 4 6 7 7 8
5 9 3 2 1 2 2 3 3 2 2 2 2 3 2 2 2 4 3 2 3 3 3 4 3 3 3 4 4 5 7 6 4 5 6 8 5 4 3 3 4 4 4 3 3 3 4 4 4 5 6 6 6 6
11 3 2 2 2 1 1 3 3 5 3 2 3 2 2 2 3 4 2 3 4 3 3 3 4 3 6 4 6 6 6 8 5 5 4 4 5 4 4 4 3 5 4 3 2 4 3 5 6 5 5 5 6 7
6 3 3 4 3 4 3 3 2 3 2 2 2 2 3 1 4 2 2 3 2 1 2 7 8 5 4 5 3 3 3 4 5 4 4 8 5 3 3 4 4 4 3 2 3 4 4 5 5 5 6 6 7 6
5 5 4 5 4 4 4 5 3 3 3 3 3 2 2 2 2 2 2 2 1 2 3 4 4 5 5 3 1 1 2 5 7 6 1 5 7 4 4 4 4 3 1 4 4 5 4 5 5 5 7 8 9 9
4 5 7 8 3 5 5 5 5 5 3 4 4 2 1 2 2 2 1 3 2 4 5 7 6 4 2 3 5 3 4 3 5 5 2 5 7 8 5 5 3 2 3 3 4 5 5 5 5 7 7 8 10 9
5 4 3 3 2 3 2 1 2 3 4 4 2 3 2 3 2 1 2 3 3 1 4 3 6 6 5 4 3 3 4 3 4 5 5 5 4 3 5 5 4 2 1 5 5 5 5 5 5 5 5 4 6 7
2 3 5 4 2 2 1 2 3 3 3 2 3 2 2 2 2 3 3 6 4 2 5 5 5 5 6 5 6 8 9 9 10 10 9 8 5 4 4 4 4 9 6 6 6 5 5 5 4 4 4 5 5 5
1 2 3 3 1 2 3 2 2 2 3 3 3 2 3 3 4 4 4 6 4 5 6 8 7 8 9 9 9 7 5 7 12 11 10 4 4 4 4 4 5 5 5 7 8 7 7 5 4 4 5 4 4 4
2 2 3 3 1 2 3 3 3 4 4 4 4 3 3 3 4 5 6 6 7 6 7 7 7 8 8 9 8 8 8 6 2 6 7 5 3 0 2 4 4 4 4 5 5 4 4 4 3 4 5 4 5 5
3 3 3 3 4 3 4 6 8 7 5 5 5 4 3 3 3 9 11 8 4 6 8 8 9 7 6 6 8 8 5 6 9 11 8 5 4 4 4 4 4 4 5 5 4 4 4 4 4 4 6 8 9 8
2 2 3 4 3 2 3 4 3 4 4 4 4 3 3 3 5 6 9 8 7 9 8 7 7 6 6 7 8 8 9 6 6 6 8 5 5 5 4 4 4 5 5 5 4 4 5 5 4 5 6 9 10 10
3 3 4 3 2 3 1 3 3 3 3 3 3 3 3 3 4 3 3 8 7 7 8 8 8 9 11 11 10 8 9 8 9 9 10 9 8 6 5 4 4 5 6 5 5 5 6 6 5 6 6 6 6 8
Wind_Direction
282 286 284 280 284 289 289 290 293 286 276 269 206 208 214 211 201 167 243 192 203 240 272 261 269 228 203 193 251 316 319 355 346 41 247 314 314 339 25 211 212 175 157 208 172 219 274 54 358 150 247 322 315 308
287 289 289 290 285 286 291 290 281 277 268 264 205 205 207 223 212 171 235 183 148 218 262 252 233 252 248 236 271 270 294 317 263 51 337 342 326 19 137 271 45 161 200 198 178 224 215 130 217 266 338 297 294 299
281 286 292 293 293 286 284 290 290 281 267 253 204 201 205 222 204 178 183 155 183 271 276 256 239 250 224 228 215 229 257 218 293 184 168 230 256 138 211 254 230 0 66 186 19 309 325 292 236 269 302 308 309 304
281 289 290 291 292 290 286 286 290 281 269 247 198 200 204 220 235 174 182 164 151 279 281 283 318 277 190 193 192 211 252 341 18 26 149 208 246 174 225 246 170 213 14 314 266 311 324 82 333 327 320 318 315 313
271 283 286 289 290 286 288 288 284 276 258 232 194 195 202 213 227 187 157 197 204 207 288 292 301 256 264 199 199 200 223 243 266 285 102 241 257 32 325 58 249 165 181 146 244 23 252 291 305 311 311 312 310 310
270 275 275 276 280 285 281 282 275 268 254 219 196 192 193 203 148 93 277 181 186 172 277 290 300 286 322 193 189 189 200 219 209 186 240 279 260 112 112 239 69 135 113 149 264 290 275 284 294 311 311 307 313 314
264 269 269 268 270 275 277 279 281 268 250 207 190 184 187 165 134 181 216 136 155 136 255 283 286 279 243 232 115 125 151 194 156 222 233 203 288 70 143 234 180 223 280 277 259 289 291 322 312 316 320 314 314 311
265 272 269 272 265 255 261 267 279 272 242 185 170 157 165 162 76 259 202 168 152 227 260 270 276 303 333 205 168 170 140 116 241 223 222 213 165 208 247 181 147 211 301 273 283 293 279 302 309 319 319 320 325 324
266 269 276 275 262 254 250 259 267 274 184 136 120 110 85 88 178 235 181 185 182 259 254 244 266 279 348 251 163 164 155 190 149 220 238 119 211 226 222 153 156 204 236 263 299 314 316 322 328 331 328 331 331 326
260 266 273 265 256 247 241 242 259 165 128 124 98 129 198 207 194 138 144 169 184 197 232 247 254 258 354 313 159 221 176 200 198 231 142 222 249 174 162 107 113 277 283 334 352 336 344 339 340 335 334 328 324 324
256 262 273 257 249 243 230 229 243 128 119 100 139 182 114 147 162 170 223 219 167 237 220 236 210 223 174 235 279 224 192 185 211 178 219 247 260 227 131 87 49 33 4 343 330 335 352 336 336 335 334 330 327 327
252 262 261 257 256 245 228 199 149 126 140 140 122 103 118 188 191 245 211 180 214 243 201 210 195 188 234 210 223 239 217 135 190 140 225 258 223 84 98 84 34 9 3 0 344 346 347 346 341 331 329 331 330 329
245 252 251 247 246 251 235 177 164 122 107 74 133 161 161 153 224 221 212 195 220 198 226 177 184 185 216 222 254 356 46 97 126 194 228 282 137 104 97 92 3 357 9 358 340 346 349 344 334 330 332 333 329 333
237 242 245 246 239 236 237 189 150 135 104 154 167 180 211 195 228 208 212 225 218 131 352 319 175 192 208 182 175 108 67 134 222 236 233 171 181 152 114 76 57 329 334 5 347 347 342 334 331 335 341 335 334 340
232 240 246 245 230 232 246 157 151 90 126 166 198 217 219 237 258 206 265 321 289 43 355 298 257 196 280 119 33 87 183 260 216 247 214 174 151 155 129 25 330 329 358 352 337 328 331 330 340 340 344 344 341 341
240 253 226 205 206 212 185 141 69 70 84 218 217 248 240 233 221 229 236 256 253 191 158 320 305 3 356 111 123 217 149 235 238 212 175 130 143 143 161 294 310 325 350 340 332 330 327 336 336 338 346 356 348 347
227 236 204 205 188 155 129 92 104 153 196 216 235 235 263 302 256 231 233 217 204 221 207 197 185 176 113 316 282 180 203 218 183 143 131 146 157 176 195 241 287 322 342 336 332 336 331 328 328 1 8 356 350 353
231 205 213 175 129 94 47 78 145 184 220 219 236 225 197 205 226 286 326 248 247 222 299 275 136 82 241 186 242 226 179 91 75 138 153 172 187 190 186 227 288 324 331 329 337 336 345 5 3 358 349 358 359 0
181 200 154 146 118 98 121 172 217 210 220 222 226 251 239 208 212 222 227 247 233 246 307 229 218 207 226 215 187 163 146 155 153 164 179 202 200 201 201 240 289 349 1 0 5 349 340 6 0 335 345 359 15 7
211 176 149 136 95 105 125 144 215 227 224 229 228 204 198 220 203 208 224 236 206 235 234 187 225 219 197 206 179 147 150 138 127 121 179 237 197 143 313 139 119 112 86 62 39 24 11 6 355 359 13 19 18 12
96 132 126 97 114 135 155 154 193 235 220 216 212 148 222 203 214 213 210 242 215 213 212 223 240 277 117 98 116 116 138 146 170 161 170 178 147 124 108 103 105 79 80 67 55 10 24 12 338 357 16 16 14 16
92 84 89 56 137 195 168 187 191 193 208 251 169 186 229 218 186 178 212 230 217 218 187 174 175 153 104 117 140 155 148 120 131 106 91 115 116 119 138 148 105 87 75 81 73 51 15 352 3 23 28 13 8 12
91 67 97 142 162 158 211 131 219 175 229 226 131 198 224 212 191 149 198 227 232 215 191 138 125 104 114 89 84 74 106 131 124 122 125 111 104 104 110 103 110 110 89 36 49 59 35 3 18 30 12 12 9 16
102 95 149 173 174 184 196 187 228 196 213 203 192 216 223 164 147 200 218 239 239 112 123 131 128 102 55 64 88 121 120 116 109 90 114 122 111 85 95 103 96 82 101 123 62 46 29 23 18 38 29 25 16 14
118 175 166 179 200 185 205 165 196 204 214 184 204 222 194 130 125 176 242 298 143 125 134 118 113 131 135 128 108 147 156 136 129 129 83 119 114 92 71 66 71 61 72 88 54 51 28 26 30 37 34 23 17 10
141 190 188 187 186 193 188 178 193 195 190 177 220 162 143 119 149 176 298 300 244 165 169 162 148 127 167 149 149 146 161 144 111 104 130 162 147 140 137 129 113 5 359 121 95 71 56 44 42 41 38 23 14 9
165 186 201 232 208 195 206 111 113 124 181 212 162 135 148 143 118 60 314 341 329 298 171 162 165 163 154 139 105 78 88 82 94 120 109 105 92 105 133 142 146 203 114 88 81 88 85 62 50 41 33 23 14 7
198 170 173 185 161 74 154 148 155 171 188 191 107 127 112 53 85 337 0 339 321 43 70 79 76 85 87 80 107 109 97 93 85 83 73 52 36 48 75 88 83 94 84 79 86 78 75 70 60 54 43 25 7 3
222 114 119 144 124 144 219 217 151 62 8 65 89 98 88 58 356 336 319 325 308 76 79 86 72 82 78 69 58 52 84 122 116 110 112 107 72 9 359 79 94 90 91 88 70 76 78 72 63 62 54 27 356 339
176 145 108 118 99 62 28 28 53 33 46 87 89 88 77 70 19 358 1 5 29 67 83 85 84 83 85 87 76 47 30 25 79 140 143 147 157 312 59 80 99 109 98 99 94 80 62 66 53 39 37 21 14 -0
142 93 82 61 70 36 78 77 62 54 47 56 62 77 95 117 61 26 17 352 355 55 67 67 53 57 90 98 112 118 90 20 62 77 84 92 89 69 62 75 92 88 92 94 93 90 86 67 55 41 32 25 14 9
74 101 116 103 97 18 34 40 45 47 31 37 40 37 74 57 58 27 0 2 40 60 49 70 84 74 73 77 72 70 77 85 68 64 71 70 60 43 44 67 84 91 88 86 79 70 62 58 49 41 30 22 15 9
72 66 77 98 100 91 65 89 63 78 46 52 52 49 47 62 73 43 36 19 36 62 76 78 77 74 72 73 77 76 69 74 74 71 71 67 63 57 57 56 61 74 85 85 77 75 65 63 48 37 24 12 359 353